TimeEST,TemperatureF,Dew PointF,Humidity,Sea Level PressureIn,VisibilityMPH,Wind Direction,Wind SpeedMPH,Gust SpeedMPH,PrecipitationIn,Events,Conditions,WindDirDegrees,DateUTC
12:53 AM,69.1,66.0,90,30.03,10.0,Calm,Calm,-,N/A,,Clear,0,2012-12-19 05:53:00
1:53 AM,68.0,64.0,87,30.03,10.0,Calm,Calm,-,N/A,,Clear,0,2012-12-19 06:53:00
2:53 AM,66.0,64.0,93,30.03,10.0,Calm,Calm,-,N/A,,Clear,0,2012-12-19 07:53:00
3:53 AM,64.9,62.1,90,30.02,10.0,Calm,Calm,-,N/A,,Clear,0,2012-12-19 08:53:00
4:53 AM,64.0,59.0,84,30.03,10.0,NNW,3.5,-,N/A,,Clear,330,2012-12-19 09:53:00
5:53 AM,63.0,57.0,81,30.04,10.0,Calm,Calm,-,N/A,,Clear,0,2012-12-19 10:53:00
6:53 AM,61.0,57.0,87,30.06,10.0,Calm,Calm,-,N/A,,Clear,0,2012-12-19 11:53:00
7:53 AM,64.9,55.9,73,30.07,10.0,Calm,Calm,-,N/A,,Clear,0,2012-12-19 12:53:00
8:53 AM,70.0,59.0,68,30.09,10.0,Calm,Calm,-,N/A,,Clear,0,2012-12-19 13:53:00
9:53 AM,77.0,57.0,50,30.11,10.0,NNE,5.8,-,N/A,,Clear,30,2012-12-19 14:53:00
10:53 AM,80.1,55.9,43,30.10,10.0,Variable,3.5,-,N/A,,Clear,0,2012-12-19 15:53:00
11:53 AM,81.0,57.9,45,30.09,10.0,East,5.8,-,N/A,,Clear,90,2012-12-19 16:53:00
12:53 PM,81.0,59.0,47,30.06,10.0,Calm,Calm,-,N/A,,Clear,0,2012-12-19 17:53:00
1:53 PM,82.0,61.0,49,30.05,10.0,East,9.2,-,N/A,,Clear,100,2012-12-19 18:53:00
2:53 PM,81.0,62.1,52,30.04,10.0,Variable,4.6,-,N/A,,Partly Cloudy,0,2012-12-19 19:53:00
3:53 PM,80.1,62.1,54,30.04,10.0,East,9.2,-,N/A,,Clear,80,2012-12-19 20:53:00
4:53 PM,78.1,62.1,58,30.05,10.0,East,8.1,-,N/A,,Clear,80,2012-12-19 21:53:00
5:53 PM,75.0,63.0,66,30.06,10.0,East,6.9,-,N/A,,Clear,80,2012-12-19 22:53:00
6:53 PM,73.9,64.0,71,30.07,10.0,East,6.9,-,N/A,,Clear,90,2012-12-19 23:53:00
7:53 PM,72.0,64.0,76,30.08,10.0,East,4.6,-,N/A,,Scattered Clouds,80,2012-12-20 00:53:00
8:53 PM,71.1,63.0,75,30.09,10.0,East,4.6,-,N/A,,Clear,80,2012-12-20 01:53:00
9:53 PM,71.1,63.0,75,30.09,10.0,East,5.8,-,N/A,,Clear,80,2012-12-20 02:53:00
10:53 PM,71.1,62.1,73,30.09,10.0,East,4.6,-,N/A,,Scattered Clouds,100,2012-12-20 03:53:00
11:53 PM,70.0,62.1,76,30.09,10.0,Calm,Calm,-,N/A,,Scattered Clouds,0,2012-12-20 04:53:00